Location: Ariel
(45.9570°N, 122.5700°W)
Time: 11:56:25
(UTC-07:00)

Altair - Pass Details

Date: 25 July 2019
Orbit: 1501 x 1683 km, 47.2° (Epoch: 16 August)

Event Time Altitude Azimuth Distance (km) Brightness Sun altitude
Rises 13:43:19 0° 258° (WSW) 4,647 10.2 63.1°
Reaches altitude 10° 13:46:21 10° 259° (W) 3,657 9.8 62.9°
Maximum altitude 13:55:33 87° 350° (N) 1,509 8.8 62.4°
Drops below altitude 10° 14:04:51 10° 80° (E) 3,688 9.5 61.8°
Sets 14:07:55 0° 81° (E) 4,688 9.9 61.6°
